Date,TemperatureHighF,TemperatureAvgF,TemperatureLowF,DewpointHighF,DewpointAvgF,DewpointLowF,HumidityHigh,HumidityAvg,HumidityLow,PressureMaxIn,PressureMinIn,WindSpeedMaxMPH,WindSpeedAvgMPH,GustSpeedMaxMPH,PrecipitationSumIn
2013-10-1,83,68,55,63,56,48,95,70,43,29.95,29.83,8,0,8,0.00
2013-10-2,82,63,47,58,49,44,95,63,28,29.94,29.83,10,0,10,0.00
2013-10-3,76,60,50,46,42,37,78,53,26,29.96,29.86,12,0,12,0.00
2013-10-4,80,58,40,47,41,36,93,58,24,30.08,29.91,6,0,6,0.00
2013-10-5,84,61,41,51,44,38,91,59,20,30.18,30.07,10,0,10,0.00
2013-10-6,88,62,42,51,44,34,93,59,16,30.11,29.94,5,0,5,0.00
2013-10-7,85,62,48,54,47,42,89,62,23,29.95,29.80,7,0,7,0.00
2013-10-8,83,61,41,50,45,38,94,61,25,29.84,29.64,7,0,7,0.00
2013-10-9,66,55,48,50,47,44,92,74,51,29.75,29.58,12,0,12,0.00
2013-10-10,73,58,47,50,47,43,89,70,40,29.95,29.75,9,0,9,0.00
2013-10-11,78,58,41,52,46,38,96,70,36,30.02,29.90,7,0,7,0.00
2013-10-12,79,59,41,54,47,39,96,69,30,29.97,29.82,7,0,7,0.00
2013-10-13,74,57,44,53,47,41,94,71,40,30.02,29.83,13,0,13,0.00
2013-10-14,79,58,42,52,46,40,96,69,34,30.08,29.94,7,0,7,0.00
2013-10-15,81,59,42,53,46,39,96,68,28,30.01,29.91,5,0,5,0.00
2013-10-16,84,60,42,52,45,38,95,64,19,30.08,29.97,5,0,5,0.00
2013-10-17,82,59,41,52,45,38,94,66,26,30.05,29.90,6,0,6,0.00
2013-10-18,84,60,43,54,46,40,93,66,26,30.03,29.93,3,0,4,0.00
2013-10-19,85,61,43,56,47,41,96,67,29,30.05,29.93,5,0,5,0.00
2013-10-20,83,60,43,54,46,41,96,67,26,29.97,29.84,6,0,6,0.00
2013-10-21,83,60,42,56,48,40,96,69,29,29.95,29.84,5,0,5,0.00
2013-10-22,85,61,42,56,48,39,96,69,29,29.97,29.83,7,0,7,0.00
2013-10-23,82,60,43,54,49,41,96,70,33,29.91,29.81,6,0,6,0.00
2013-10-24,82,60,43,55,48,41,96,71,31,30.01,29.87,5,0,5,0.00
2013-10-25,79,58,42,55,48,40,96,75,39,30.13,30.01,5,0,5,0.00
2013-10-26,81,58,41,56,49,39,97,74,38,30.11,29.95,1,0,4,0.00
2013-10-27,80,60,43,54,48,41,97,70,32,29.98,29.63,14,0,14,0.00
2013-10-28,64,54,48,52,47,43,90,78,53,29.85,29.67,10,0,10,0.03
2013-10-29,67,52,40,51,44,38,97,78,45,30.00,29.86,7,0,7,0.05
2013-10-30,69,52,38,51,44,36,96,76,44,30.12,30.00,6,0,6,0.00
2013-10-31,72,52,37,51,44,35,97,76,41,30.16,30.04,5,0,5,0.00